Regional Weather Roundup
Issued by NWS Goodland, KS

Home | Current Version | Previous Version | Graphics & Text | Print | Product List | Glossary On
Versions: 1 2 3 4 5 6 7 8 9 10 11 12 13 14 15 16 17 18 19 20 21 22 23 24 25 26 27 28 29 30 31 32 33 34 35 36 37 38 39 40 41 42 43 44 45 46 47 48 49 50
000
ASUS43 KGLD 121159
RWRGLD

GOODLAND FORECAST AREA HOURLY WEATHER ROUNDUP
NATIONAL WEATHER SERVICE GOODLAND KS
500 AM MST TUE DEC 12 2017

...OFFICIAL OBSERVATIONS...

CITY           SKY/WX    TMP DP  RH WIND       PRES   REMARKS
GOODLAND KS    CLOUDY    21   9  59 W9        30.35F
HILL CITY KS   CLOUDY    24  20  84 W7        30.38F
IMPERIAL NEB   CLOUDY    21  12  68 W7        30.33F
MCCOOK NEB     CLOUDY    19  16  88 W8        30.36F
AKRON CO       CLOUDY    30   8  39 W13       30.33F WCI  20
BURLINGTON CO  CLOUDY    20   9  62 W10       30.36F WCI   9
LIMON CO       CLOUDY    22   7  52 NW7       30.38F
$$

...UNOFFICIAL OBSERVATIONS...

CITY           SKY/WX    TMP DP  RH WIND       PRES   REMARKS
LENORA KS        N/A     25  32 100 W8          N/A
NORTON KS      CLEAR     23  18  80 W10       30.35  WCI  12
SHARON SPRINGS   N/A     17   9  70 W6          N/A
TRENTON NEB      N/A     20  32 100 W5          N/A
KIT CARSON CO    N/A     17   5  58 CALM        N/A
YUMA CO        FAIR      21  10  63 SW10      30.33F WCI  10
$$



USA.gov is the U.S. government's official web portal to all federal, state and local government web resources and services.